User: anonymous   Login
Location: Newark
(40.3500°N, 15.2333°E)
Time: 23:15:20
(UTC+00:00)
Language:

Explorer 11/Cluster Stage 4 - Orbit

View from above orbital plane
View from above orbital plane
View from above satellite
View from above satellite

Ground track
Ground track

The orbit data is extracted from the following two-line orbital elements,

1   107U 61013A   20022.44103626 +.00000274 +00000-0 +14501-4 0  9999
2   107 028.7891 291.6963 0547075 194.2212 164.2377 14.08894662945477
Epoch (UTC): 22 January 2020 10:35:05
Eccentricity: 0.0547075
inclination: 28.7891°
perigee height: 467 km
apogee height: 1259 km
right ascension of ascending node: 291.6963°
argument of perigee: 194.2212°
revolutions per day: 14.08894662
mean anomaly at epoch: 164.2377°
orbit number at epoch: 94547

The dashed part of the orbit path shows where the satellite is in the earth's shadow,  

DLR